EW2821 Weather Reports


time (UTC)temp
C
wind
direction
speed
KPH
gust
KPH
rain 1hr
cm
rain 24hr
cm
rain mn
cm
humidity
%
barometer
mb
20260509033010 12 229 8.0 27.4 0.18 0.56 0.56 93 1009.8
20260509031509 12 244 12.9 25.7 0.13 0.48 0.48 93 1009.7
20260509030008 12 234 12.9 32.2 0.15 0.43 0.43 93 1009.9
20260509024509 12 210 16.1 32.2 0.15 0.41 0.41 93 1009.8
20260509023014 12 203 17.7 27.4 0.13 0.38 0.38 93 1010.1
20260509021511 12 211 11.3 24.1 0.10 0.36 0.36 93 1010.0
20260509020007 12 222 9.7 17.7 0.03 0.28 0.28 93 1010.0
20260509014506 12 210 8.0 19.3 0.03 0.25 0.25 93 1009.9
20260509013016 12 212 8.0 16.1 0.05 0.25 0.25 93 1009.9
20260509011505 12 211 9.7 14.5 0.10 0.25 0.25 93 1009.7
20260509010005 12 212 6.4 12.9 0.10 0.25 0.25 92 1009.7
20260509004505 12 229 3.2 6.4 0.10 0.23 0.23 92 1009.7
20260509003003 12 216 8.0 14.5 0.10 0.20 0.20 91 1009.5
20260509001502 12 254 9.7 16.1 0.08 0.15 0.15 90 1010.0
20260509000002 12 253 9.7 17.7 0.10 0.15 0.15 89 1009.8
20260508234505 12 262 8.0 17.7 0.10 0.13 0.13 90 1009.8
20260508233002 12 215 6.4 14.5 0.10 0.10 0.10 90 1009.6
20260508231605 12 309 1.6 4.8 0.08 0.08 0.08 89 1009.9
20260508224608 13 303 14.5 19.3 0.03 0.03 0.03 84 1010.2
20260508223057 15 279 12.9 19.3 0.00 0.00 0.00 76 1010.2
20260508221603 15 195 4.8 9.7 0.00 0.00 0.00 70 1009.5
20260508220056 16 212 4.8 8.0 0.00 0.00 0.00 66 1009.1
20260508214555 16 200 3.2 6.4 0.00 0.00 0.00 66 1009.0
20260508213113 16 241 0.0 6.4 0.00 0.00 0.00 66 1009.1
20260508211552 16 254 1.6 4.8 0.00 0.00 0.00 63 1009.3
20260508210051 16 250 1.6 8.0 0.00 0.00 0.00 62 1009.6
20260508204551 16 266 8.0 14.5 0.00 0.00 0.00 61 1009.7
20260508203102 16 211 6.4 17.7 0.00 0.00 0.00 60 1009.8
20260508201545 16 218 6.4 20.9 0.00 0.00 0.00 60 1010.2
20260508200051 16 227 12.9 27.4 0.00 0.00 0.00 58 1010.4
20260508194543 16 230 9.7 27.4 0.00 0.00 0.00 58 1010.5
20260508193115 16 201 8.0 35.4 0.00 0.00 0.00 58 1010.4
20260508191542 17 226 16.1 30.6 0.00 0.00 0.00 57 1010.4
20260508190040 17 176 16.1 27.4 0.00 0.00 0.00 58 1010.8
20260508184546 17 249 11.3 33.8 0.00 0.00 0.00 59 1010.9
20260508183041 17 202 17.7 27.4 0.00 0.00 0.00 56 1011.0
20260508181537 18 216 12.9 41.8 0.00 0.00 0.00 55 1011.0
20260508180034 18 243 22.5 37.0 0.00 0.00 0.00 56 1011.0
20260508174548 17 190 22.5 37.0 0.00 0.00 0.00 61 1011.2
20260508173030 17 241 16.1 37.0 0.00 0.00 0.00 59 1011.5
20260508171528 16 239 8.0 25.7 0.00 0.00 0.00 61 1011.8
20260508170022 16 178 6.4 20.9 0.00 0.00 0.00 63 1012.1
20260508164528 16 221 11.3 30.6 0.00 0.00 0.00 59 1012.4
20260508163023 16 160 12.9 30.6 0.00 0.00 0.00 57 1012.4
20260508161535 16 237 11.3 27.4 0.00 0.00 0.00 59 1012.8
20260508160017 16 274 9.7 22.5 0.00 0.00 0.00 60 1012.9
20260508154516 16 257 9.7 22.5 0.00 0.00 0.00 61 1012.9
20260508153012 16 227 12.9 20.9 0.00 0.00 0.00 63 1012.8
20260508151523 15 232 16.1 29.0 0.00 0.00 0.00 62 1012.7
20260508150012 15 205 14.5 33.8 0.00 0.00 0.00 65 1012.8
20260508144505 14 275 14.5 29.0 0.00 0.00 0.00 63 1013.2
20260508143001 13 228 11.3 22.5 0.00 0.00 0.00 64 1013.3
20260508141557 13 243 9.7 19.3 0.00 0.00 0.00 65 1013.4
20260508140056 13 247 12.9 22.5 0.00 0.00 0.00 65 1013.5
20260508134600 12 226 12.9 20.9 0.00 0.00 0.00 66 1013.5
20260508133102 11 212 9.7 14.5 0.00 0.00 0.00 69 1013.4
20260508131540 11 241 6.4 12.9 0.00 0.00 0.00 73 1013.7
20260508130036 10 253 4.8 12.9 0.00 0.00 0.00 74 1013.7
20260508124534 8 253 4.8 6.4 0.00 0.00 0.00 76 1013.9
20260508123031 8 257 1.6 6.4 0.00 0.00 0.00 78 1013.7
20260508121532 8 216 3.2 8.0 0.00 0.00 0.00 78 1013.8
20260508120027 8 203 1.6 6.4 0.00 0.00 0.00 80 1013.6
20260508114527 7 194 1.6 11.3 0.00 0.03 0.00 82 1013.6
20260508113028 7 199 6.4 8.0 0.00 0.03 0.00 80 1013.3
20260508111518 8 278 3.2 6.4 0.00 0.03 0.00 77 1013.3
20260508110018 8 215 1.6 6.4 0.00 0.03 0.00 76 1013.1
20260508104515 7 225 1.6 9.7 0.00 0.03 0.00 76 1012.9
20260508103014 7 183 4.8 9.7 0.00 0.03 0.00 77 1012.8
20260508101515 7 207 6.4 11.3 0.00 0.03 0.00 75 1012.8
20260508100012 8 237 3.2 8.0 0.00 0.03 0.00 73 1012.9
20260508094512 8 234 0.0 8.0 0.00 0.03 0.00 71 1012.9
20260508093011 9 226 1.6 9.7 0.00 0.03 0.00 71 1012.9
20260508091522 9 199 4.8 9.7 0.00 0.03 0.00 70 1012.9
20260508090014 8 249 4.8 11.3 0.00 0.03 0.00 70 1013.1
20260508084508 8 236 1.6 6.4 0.00 0.03 0.00 70 1013.2
20260508083016 8 205 4.8 9.7 0.00 0.03 0.00 71 1013.1
20260508081509 8 228 0.0 8.0 0.00 0.03 0.00 68 1013.2
20260508080006 8 260 0.0 9.7 0.00 0.03 0.00 69 1013.2
20260508074505 8 253 1.6 11.3 0.00 0.03 0.00 71 1013.1
20260508073001 8 214 3.2 11.3 0.00 0.03 0.00 72 1013.1
20260508071600 8 207 3.2 11.3 0.00 0.03 0.00 73 1013.2
20260508070101 8 229 3.2 9.7 0.00 0.03 0.00 72 1013.4
20260508064557 8 224 3.2 11.3 0.00 0.03 0.00 73 1013.4
20260508063138 8 220 3.2 9.7 0.00 0.03 0.00 73 1013.5
20260508061556 8 199 4.8 9.7 0.00 0.03 0.00 73 1013.5
20260508060057 8 211 4.8 8.0 0.00 0.03 0.00 73 1013.6
20260508054555 8 208 3.2 11.3 0.00 0.03 0.00 73 1013.5
20260508053100 8 229 3.2 6.4 0.00 0.03 0.00 74 1013.6
20260508051617 8 225 3.2 11.3 0.00 0.03 0.00 74 1013.7
20260508050055 8 212 1.6 9.7 0.00 0.03 0.00 74 1013.7
20260508044550 8 222 6.4 12.9 0.00 0.03 0.00 75 1013.7
20260508043048 7 197 6.4 11.3 0.00 0.03 0.00 78 1013.6
20260508041546 7 205 3.2 9.7 0.00 0.03 0.00 77 1013.6
20260508040042 8 190 4.8 11.3 0.00 0.03 0.00 77 1013.5
20260508034542 7 209 3.2 9.7 0.00 0.03 0.03 78 1013.5